Torna al catalogo

AETHER-4

AttivoComunicazioniSSO
NORAD 67375·PAYLOAD·🇨🇦 Canada

Lanciato Jan 11, 2026 da Vandenberg Space Force Base

Loading…

Prossimi Passaggi (prossime 24 ore)

TLE

AggiornatoSource: Space-Track

Epoca: Sep 14, 2026, 06:02 UTC

1 67375U 26004N   26257.25185728  .00000476  00000-0  60641-4 0  9998
2 67375  97.8103 254.2743 0000830 163.5445 196.5798 14.85935988 36525

Traccia AETHER-4 in tempo reale con AllMySat

Download on the App Store